When you browse on this site, cookies collect data to enhance your experience and personalize the content and advertising you see.
Visit our Privacy Policy to learn more. By continuing to use the site, you agree to this use of cookies and data.
  • en France
  • Liste des pays
  • À 7 jours
  • Température de l'eau
  • Carte satellitaire
  • Carte météo
  • Widgets météo
  • user-avatar
    Se connecter

    Météo par heure à Tiranё

    Ce jour, 16 Janvier, Mercredi

    Heure Température Précipitation Vent Pression Humidité
    00:00 -2°C° 0 mm 4 m/s 759 mmHg 50%
    01:00 -1°C° 0 mm 3 m/s 758 mmHg 49%
    02:00 -1°C° 0 mm 3 m/s 758 mmHg 48%
    03:00 -1°C° 0 mm 3 m/s 759 mmHg 48%
    04:00 -1°C° 0 mm 2 m/s 759 mmHg 47%
    05:00 -1°C° 0 mm 2 m/s 759 mmHg 46%
    06:00 -1°C° 0 mm 2 m/s 759 mmHg 44%
    07:00 0°C° 0 mm 3 m/s 759 mmHg 40%
    08:00 +1°C° 0 mm 3 m/s 759 mmHg 37%
    09:00 +3°C° 0 mm 3 m/s 759 mmHg 35%
    10:00 +4°C° 0 mm 3 m/s 759 mmHg 33%
    11:00 +6°C° 0 mm 2 m/s 759 mmHg 36%
    12:00 +7°C° 0 mm 2 m/s 759 mmHg 39%
    13:00 +9°C° 0 mm 1 m/s 759 mmHg 42%
    14:00 +8°C° 0 mm 1 m/s 759 mmHg 47%
    15:00 +7°C° 0 mm 1 m/s 759 mmHg 52%
    16:00 +7°C° 0 mm 1 m/s 759 mmHg 58%
    17:00 +5°C° 0 mm 2 m/s 759 mmHg 59%
    18:00 +4°C° 0 mm 2 m/s 759 mmHg 61%
    19:00 +2°C° 0 mm 3 m/s 759 mmHg 62%
    20:00 +2°C° 0 mm 3 m/s 759 mmHg 63%
    21:00 +2°C° 0 mm 3 m/s 759 mmHg 63%
    22:00 +2°C° 0 mm 3 m/s 759 mmHg 63%
    23:00 +2°C° 0 mm 3 m/s 759 mmHg 63%

    Demain, 17 Janvier, Jeudi

    Heure Température Précipitation Vent Pression Humidité
    00:00 +2°C° 0 mm 3 m/s 759 mmHg 63%
    01:00 +2°C° 0 mm 3 m/s 759 mmHg 62%
    02:00 +2°C° 0 mm 3 m/s 759 mmHg 62%
    03:00 +2°C° 0 mm 3 m/s 759 mmHg 62%
    04:00 +2°C° 0 mm 3 m/s 759 mmHg 61%
    05:00 +2°C° 0 mm 3 m/s 758 mmHg 61%
    06:00 +2°C° 0 mm 3 m/s 758 mmHg 61%
    07:00 +2°C° 0 mm 3 m/s 758 mmHg 61%
    08:00 +4°C° 0 mm 3 m/s 758 mmHg 57%
    09:00 +7°C° 0 mm 3 m/s 758 mmHg 53%
    10:00 +9°C° 0 mm 3 m/s 758 mmHg 49%
    11:00 +10°C° 0 mm 3 m/s 758 mmHg 46%
    12:00 +12°C° 0 mm 2 m/s 757 mmHg 43%
    13:00 +13°C° 0 mm 2 m/s 757 mmHg 40%
    14:00 +12°C° 0 mm 2 m/s 757 mmHg 43%
    15:00 +10°C° 0 mm 2 m/s 757 mmHg 47%
    16:00 +9°C° 0 mm 2 m/s 757 mmHg 51%
    17:00 +8°C° 0 mm 3 m/s 757 mmHg 51%
    18:00 +8°C° 0 mm 3 m/s 757 mmHg 51%
    19:00 +7°C° 0 mm 3 m/s 757 mmHg 51%
    20:00 +5°C° 0 mm 4 m/s 757 mmHg 50%
    21:00 +5°C° 0 mm 4 m/s 757 mmHg 48%
    22:00 +5°C° 0 mm 4 m/s 757 mmHg 47%
    23:00 +5°C° 0 mm 4 m/s 757 mmHg 49%

    Après-demain, 18 Janvier, Vendredi

    Heure Température Précipitation Vent Pression Humidité
    00:00 +6°C° 0 mm 4 m/s 757 mmHg 52%
    01:00 +6°C° 0 mm 4 m/s 756 mmHg 54%
    02:00 +6°C° 0 mm 4 m/s 756 mmHg 58%
    03:00 +6°C° 0 mm 4 m/s 756 mmHg 63%
    04:00 +6°C° 0 mm 4 m/s 755 mmHg 67%
    05:00 +6°C° 0 mm 4 m/s 755 mmHg 70%
    06:00 +6°C° 0 mm 4 m/s 755 mmHg 72%
    07:00 +6°C° 0 mm 4 m/s 755 mmHg 74%
    08:00 +8°C° 0 mm 5 m/s 755 mmHg 72%
    09:00 +9°C° 0 mm 5 m/s 756 mmHg 71%
    10:00 +10°C° 0 mm 5 m/s 756 mmHg 69%
    11:00 +12°C° 0 mm 5 m/s 755 mmHg 68%
    12:00 +12°C° 0 mm 4 m/s 755 mmHg 67%
    13:00 +13°C° 0 mm 4 m/s 755 mmHg 65%
    14:00 +13°C° 0.2 mm 4 m/s 755 mmHg 68%
    15:00 +12°C° 0.2 mm 4 m/s 755 mmHg 71%
    16:00 +12°C° 0.2 mm 3 m/s 755 mmHg 73%
    17:00 +11°C° 0.3 mm 3 m/s 755 mmHg 75%
    18:00 +10°C° 0.3 mm 3 m/s 756 mmHg 77%
    19:00 +9°C° 0.3 mm 3 m/s 756 mmHg 79%
    20:00 +8°C° 0 mm 3 m/s 756 mmHg 78%
    21:00 +8°C° 0 mm 3 m/s 757 mmHg 77%
    22:00 +7°C° 0 mm 3 m/s 757 mmHg 77%
    23:00 +7°C° 0 mm 3 m/s 757 mmHg 76%

    19 Janvier, Samedi

    Heure Température Précipitation Vent Pression Humidité
    00:00 +7°C° 0 mm 3 m/s 757 mmHg 75%
    01:00 +7°C° 0 mm 3 m/s 757 mmHg 74%
    02:00 +7°C° 0.1 mm 3 m/s 756 mmHg 73%
    03:00 +7°C° 0.1 mm 3 m/s 756 mmHg 73%
    04:00 +7°C° 0.1 mm 3 m/s 756 mmHg 72%
    05:00 +7°C° 0.1 mm 3 m/s 756 mmHg 72%
    06:00 +7°C° 0.1 mm 3 m/s 756 mmHg 72%
    07:00 +7°C° 0.1 mm 3 m/s 756 mmHg 72%
    08:00 +8°C° 0 mm 3 m/s 756 mmHg 68%
    09:00 +10°C° 0 mm 3 m/s 756 mmHg 64%
    10:00 +11°C° 0 mm 3 m/s 756 mmHg 60%
    11:00 +12°C° 0 mm 3 m/s 756 mmHg 58%
    12:00 +13°C° 0 mm 3 m/s 755 mmHg 56%
    13:00 +14°C° 0 mm 3 m/s 755 mmHg 54%
    14:00 +13°C° 0.5 mm 4 m/s 755 mmHg 60%
    15:00 +13°C° 0.5 mm 5 m/s 754 mmHg 67%
    16:00 +11°C° 0.5 mm 6 m/s 754 mmHg 73%
    17:00 +10°C° 0.7 mm 6 m/s 754 mmHg 76%
    18:00 +9°C° 0.7 mm 5 m/s 754 mmHg 78%
    19:00 +8°C° 0.7 mm 5 m/s 755 mmHg 81%
    20:00 +8°C° 0.5 mm 5 m/s 755 mmHg 81%
    21:00 +8°C° 0.5 mm 5 m/s 755 mmHg 80%
    22:00 +8°C° 0.5 mm 5 m/s 755 mmHg 80%
    23:00 +8°C° 0.5 mm 5 m/s 754 mmHg 79%

    20 Janvier, Dimanche

    Heure Température Précipitation Vent Pression Humidité
    00:00 +8°C° 0.5 mm 5 m/s 754 mmHg 79%
    01:00 +8°C° 0.5 mm 5 m/s 754 mmHg 79%
    02:00 +7°C° 1 mm 5 m/s 753 mmHg 79%
    03:00 +7°C° 1 mm 5 m/s 753 mmHg 80%
    04:00 +7°C° 1 mm 5 m/s 753 mmHg 80%
    05:00 +7°C° 0.4 mm 6 m/s 753 mmHg 79%
    06:00 +7°C° 0.4 mm 6 m/s 753 mmHg 79%
    07:00 +7°C° 0.4 mm 6 m/s 753 mmHg 78%
    08:00 +8°C° 0.1 mm 6 m/s 753 mmHg 74%
    09:00 +9°C° 0.1 mm 6 m/s 753 mmHg 71%
    10:00 +10°C° 0.1 mm 6 m/s 753 mmHg 67%
    11:00 +11°C° 0.2 mm 6 m/s 753 mmHg 67%
    12:00 +11°C° 0.2 mm 6 m/s 753 mmHg 66%
    13:00 +13°C° 0.2 mm 6 m/s 752 mmHg 66%
    14:00 +11°C° 0.5 mm 6 m/s 752 mmHg 68%
    15:00 +12°C° 0.5 mm 5 m/s 752 mmHg 70%
    16:00 +12°C° 0.5 mm 5 m/s 752 mmHg 73%
    17:00 +11°C° 0.5 mm 4 m/s 752 mmHg 75%
    18:00 +10°C° 0.5 mm 3 m/s 753 mmHg 76%
    19:00 +9°C° 0.5 mm 3 m/s 753 mmHg 78%
    20:00 +9°C° 0.5 mm 3 m/s 753 mmHg 79%
    21:00 +8°C° 0.5 mm 2 m/s 754 mmHg 80%
    22:00 +8°C° 0.5 mm 2 m/s 754 mmHg 80%
    23:00 +8°C° 0.4 mm 2 m/s 754 mmHg 80%

    21 Janvier, Lundi

    Heure Température Précipitation Vent Pression Humidité
    00:00 +8°C° 0.4 mm 2 m/s 754 mmHg 80%
    01:00 +8°C° 0.4 mm 3 m/s 754 mmHg 79%
    02:00 +8°C° 0.1 mm 3 m/s 754 mmHg 79%
    03:00 +7°C° 0.1 mm 3 m/s 753 mmHg 78%
    04:00 +7°C° 0.1 mm 3 m/s 753 mmHg 77%
    05:00 +7°C° 0 mm 3 m/s 754 mmHg 77%
    06:00 +7°C° 0 mm 3 m/s 754 mmHg 77%
    07:00 +7°C° 0 mm 3 m/s 754 mmHg 77%
    08:00 +8°C° 0 mm 3 m/s 754 mmHg 72%
    09:00 +10°C° 0 mm 2 m/s 754 mmHg 67%
    10:00 +12°C° 0 mm 2 m/s 754 mmHg 63%
    11:00 +13°C° 0 mm 2 m/s 754 mmHg 60%
    12:00 +14°C° 0 mm 2 m/s 754 mmHg 57%
    13:00 +14°C° 0 mm 1 m/s 753 mmHg 54%
    14:00 +14°C° 0.1 mm 1 m/s 753 mmHg 57%
    15:00 +13°C° 0.1 mm 1 m/s 753 mmHg 61%
    16:00 +13°C° 0.1 mm 1 m/s 753 mmHg 64%
    17:00 +12°C° 0.1 mm 1 m/s 754 mmHg 66%
    18:00 +12°C° 0.1 mm 1 m/s 754 mmHg 69%
    19:00 +10°C° 0.1 mm 2 m/s 754 mmHg 71%
    20:00 +9°C° 0 mm 2 m/s 754 mmHg 72%
    21:00 +9°C° 0 mm 2 m/s 754 mmHg 73%
    22:00 +8°C° 0 mm 3 m/s 754 mmHg 74%
    23:00 +8°C° 0 mm 3 m/s 754 mmHg 73%
    Voir plus